This is the latest recevied weather packets stored in our database for station/object M0TUM-1. If no packets are shown the sender has not sent any weather packets the latest 10 day(s).
| Time | Temp. | Humidity | Pressure | Rain* | Wind** | Luminosity | Snow |
|---|---|---|---|---|---|---|---|
| 1777748588 | 16.11° C | 68% | 1012.1 hPa | 0 mm | - | 5 W/m² | - |
| 1777748283 | 16.11° C | 67% | 1012.3 hPa | 0 mm | - | 6 W/m² | - |
| 1777747979 | 16.11° C | 67% | 1012.3 hPa | 0 mm | - | 6 W/m² | - |
| 1777747676 | 16.67° C | 66% | 1012.4 hPa | 0 mm | - | 7 W/m² | - |
| 1777747372 | 16.67° C | 65% | 1012.4 hPa | 0 mm | - | 8 W/m² | - |
| 1777747069 | 16.67° C | 66% | 1012.5 hPa | 0 mm | - | 11 W/m² | - |
| 1777746765 | 16.67° C | 66% | 1012.6 hPa | 0 mm | - | 15 W/m² | - |
| 1777746460 | 16.67° C | 65% | 1012.6 hPa | 0 mm | - | 18 W/m² | - |
| 1777746156 | 16.67° C | 65% | 1012.5 hPa | 0 mm | - | 19 W/m² | - |
| 1777745852 | 17.22° C | 64% | 1012.5 hPa | 0 mm | - | 23 W/m² | - |
| 1777745552 | 17.22° C | 64% | 1012.3 hPa | 0 mm | - | 26 W/m² | - |
| 1777745248 | 17.22° C | 63% | 1012.6 hPa | 0 mm | - | 34 W/m² | - |
| 1777744946 | 17.78° C | 63% | 1012.7 hPa | 0 mm | - | 40 W/m² | - |
| 1777744646 | 17.78° C | 62% | 1012.6 hPa | 0 mm | - | 46 W/m² | - |
| 1777744341 | 17.78° C | 62% | 1012.5 hPa | 0 mm | - | 54 W/m² | - |
| 1777744038 | 17.78° C | 64% | 1012.5 hPa | 0 mm | - | 59 W/m² | - |
| 1777743735 | 17.78° C | 64% | 1012.7 hPa | 0 mm | - | 61 W/m² | - |
| 1777743432 | 17.78° C | 64% | 1012.7 hPa | 0 mm | - | 62 W/m² | - |
| 1777743129 | 17.78° C | 64% | 1012.5 hPa | 0 mm | - | 75 W/m² | - |
| 1777742828 | 18.33° C | 64% | 1012.5 hPa | 0 mm | - | 80 W/m² | - |
| 1777742523 | 18.33° C | 63% | 1012.6 hPa | 0 mm | - | 81 W/m² | - |
| 1777742219 | 18.33° C | 63% | 1012.9 hPa | 0 mm | - | 129 W/m² | - |
| 1777741916 | 18.89° C | 62% | 1012.8 hPa | 0 mm | - | 178 W/m² | - |
| 1777741613 | 18.89° C | 62% | 1012.8 hPa | 0 mm | - | 106 W/m² | - |
| 1777741310 | 18.89° C | 61% | 1012.7 hPa | 0 mm | - | 101 W/m² | - |
* Rain latest hour (hover to see other rain measurements)
** Current wind speed in m/s (hover to see current wind gust speed)